Weather in Kokshamary

Russia / Mari El Republic     56°09′44″N   47°44′12″E
temp.,
°C
wind,
m/s
gust,
m/s
humid.,
%
clouds,
%
prec.,
mm/h
press.,
hPa
HPBL,
m
2 march, tue
tue200:00−6sw61395100 0.6 1010534
03:00−3sw61495100 3.4 1006749
06:00−1wsw61396100 1.6 1000726
09:00+1w51299100 2.6 999720
12:000w51199100 0.7 998767
15:00+1w5119691 1.0 998849
18:00−2w4119244 0.1 999352
21:00−3w499544 0.1 1000264
3 march, wed
wed300:00−3w399696 0.0 1000297
03:00−2w399596 0.1 1000460
06:00−4wnw5109599 0.3 1000593
09:00−5nw5109399 0.6 1002744
12:00−4nw61090100 0.4 1003771
15:00−4wnw5989100 0.6 1005788
18:00−6wnw4990100 0.1 1005732
21:00−6w4991100 0.2 1005695
4 march, thu
thu400:00−6wsw4119494 0.1 1002529
03:00−4wsw5129397 0.3 1001657
06:00−4wsw41195100 0.1 998510
09:00−2wsw61294100 0.8 996851
12:00−1wsw61194100 0.3 993969
15:000w7127582 0.8 9931374
18:00−4w4128833 0.0 995665
21:00−6wnw4119267 0.0 998405
5 march, fri
fri500:00−8wnw2597100 0.0 999127
03:00−10nw2297100 0.0 100021
06:00−13nnw229699 0.0 100121
09:00−11n2494100 0.0 1002234
12:00−8nnw3488100 0.0 1003489
15:00−7nw368689 0.0 1006792
18:00−11nw2395100 0.1 100846
21:00−15wnw229680 0.1 101120
6 march, sat
sat600:00−16w22970 0.0 101220
03:00−17sw229721 0.0 101220
06:00−17sw239626 0.0 101220
09:00−12sw259032 0.0 1012245
12:00−8wsw359296 0.1 1012477
15:00−7w358999 0.3 1011715
18:00−12nnw2495100 0.3 1011102
21:00−17wnw239580 0.3 101220